Location: Bacharowice
(49.9333°N, 19.5833°E)
Time: 23:06:21
(UTC+00:00)

SL-24 R/B - RUBIN 2 - Pass Details

Date: 11 May 2021
Orbit: 583 x 1012 km, 64.6° (Epoch: 21 June)

Event Time Altitude Azimuth Distance (km) Brightness Sun altitude
Rises 20:20:54 0° 319° (NW) 3,480 9.2 -15.5°
Reaches altitude 10° 20:23:35 10° 323° (NW) 2,471 8.0 -15.8°
Maximum altitude 20:29:11 59° 43° (NE) 886 4.4 -16.2°
Enters shadow 20:32:16 23° 116° (ESE) 1,520 5.1 -16.5°
